Wind_Speed
38 38 38 39 41 43 44 45 45 44 45 50 52 55 59 55 63 63 67 68 71 72 75 78 81 83 84 86 87 88 88 89 88 88 89 88 88 88 87 87 89 88 87 87
38 38 39 40 39 39 41 42 43 46 47 51 53 58 59 61 60 64 66 69 71 73 74 77 79 82 85 88 90 91 92 93 94 94 93 92 92 91 91 91 90 90 91 91
39 39 39 38 38 38 39 42 45 49 53 57 59 66 63 61 67 68 71 72 74 75 76 77 77 80 84 87 88 90 94 96 97 97 97 97 96 96 95 95 94 94 93 93
39 38 38 36 37 38 40 44 48 54 60 67 63 70 73 65 74 76 74 76 75 77 79 80 80 81 83 86 89 91 93 94 96 99 100 100 100 100 100 100 98 97 98 97
38 37 36 36 37 40 43 48 52 57 61 64 65 68 70 67 72 71 74 75 74 74 74 75 77 77 79 81 84 88 92 95 96 96 97 98 98 101 101 101 100 100 101 101
34 36 36 39 42 45 49 54 58 61 60 57 52 57 61 56 61 60 59 61 62 63 65 67 68 69 70 70 70 74 79 87 91 94 96 97 98 98 97 98 97 97 98 98
34 35 37 40 44 50 54 57 63 61 52 49 47 49 43 48 50 50 49 50 51 51 51 53 55 56 57 60 63 67 70 75 79 84 88 91 92 95 97 97 95 94 94 94
36 38 40 43 47 53 55 61 59 53 47 53 52 42 38 41 43 43 40 41 42 43 44 45 47 47 48 49 50 53 57 60 64 70 75 78 80 84 88 90 90 91 92 92
39 41 43 46 51 54 57 58 57 52 46 49 50 43 32 37 40 37 35 35 35 37 41 42 43 42 44 45 47 44 46 48 50 53 59 64 67 71 75 80 84 88 90 90
42 44 45 49 52 53 56 56 55 50 45 45 48 46 41 35 36 32 32 33 31 32 32 35 37 37 38 40 42 43 43 42 41 43 47 51 54 58 61 65 69 74 79 82
44 46 48 52 53 51 53 53 54 55 46 43 44 48 40 36 35 32 32 33 29 30 30 32 35 36 37 38 38 39 38 38 36 36 39 43 45 47 50 52 56 57 59 64
45 49 49 51 53 53 54 54 56 56 47 43 44 46 47 39 36 31 33 33 32 34 36 39 40 41 41 41 40 38 33 33 30 32 35 38 38 40 41 41 44 45 47 52
49 48 49 51 54 55 57 56 57 59 54 48 43 46 49 35 36 33 31 32 32 33 36 39 41 43 40 41 36 35 30 30 29 29 32 35 37 37 40 38 39 39 41 44
50 49 48 53 57 58 56 56 57 60 54 46 49 44 50 38 33 32 32 32 32 31 33 36 40 44 42 41 36 34 30 29 29 31 32 34 34 31 30 29 31 35 36 39
50 50 51 55 57 60 60 61 58 59 54 45 47 47 47 40 33 31 31 34 35 34 34 35 38 41 41 33 31 29 29 32 33 29 24 21 24 23 24 24 28 34 40 43
53 56 57 56 58 58 58 61 61 57 54 45 46 45 47 38 30 29 31 33 35 35 31 34 38 41 35 30 28 30 31 29 26 18 17 21 19 22 24 29 32 37 38 39
54 59 59 57 57 57 57 61 63 55 52 44 44 43 47 40 27 26 30 31 32 32 33 34 35 37 30 31 31 29 25 17 12 16 15 18 22 26 29 35 37 38 37 35
59 61 63 62 60 60 60 58 63 53 52 42 43 42 43 39 29 26 28 28 29 31 35 35 33 33 32 31 23 19 15 16 19 20 22 24 29 34 36 37 37 34 29 23
67 69 68 62 63 65 65 60 63 49 50 41 42 40 37 38 29 26 27 27 28 27 31 28 29 27 25 22 23 22 20 22 27 31 32 33 35 33 31 30 28 19 12 13
69 65 62 63 66 68 67 54 58 48 48 42 43 40 35 34 28 27 28 27 26 25 27 23 24 20 20 22 24 25 28 29 28 30 31 31 29 21 18 16 11 6 9 15
66 67 65 63 60 58 53 52 57 49 48 41 40 38 37 33 24 26 28 26 23 21 23 18 13 14 17 17 22 23 20 16 19 24 21 19 16 9 9 9 10 19 29 34
58 60 59 58 58 56 53 53 52 51 47 44 42 38 35 31 26 23 25 25 20 18 16 7 8 11 12 15 14 18 22 24 20 19 12 9 3 5 11 17 29 40 42 42
61 60 63 63 62 59 56 50 51 50 47 46 44 41 35 29 27 23 21 20 14 13 4 6 6 7 10 14 21 26 30 37 32 19 16 10 10 16 24 33 39 44 50 56
66 67 64 65 62 60 56 52 50 51 50 46 46 46 36 29 23 21 19 16 10 8 8 4 4 9 18 16 15 18 21 26 31 28 22 21 23 31 35 40 47 56 67 72
70 65 67 64 60 58 53 51 51 49 50 46 45 47 35 28 22 21 17 14 8 5 13 9 14 10 16 7 16 17 26 28 27 33 34 34 36 41 46 52 61 67 73 71
69 67 61 59 56 52 53 48 52 49 47 42 44 44 33 27 22 20 18 12 7 10 16 14 20 23 20 20 27 21 24 24 23 33 41 44 46 52 57 63 66 65 63 57
Wind_Direction
284 284 284 282 282 283 283 281 281 279 279 277 276 277 276 272 275 272 272 270 269 267 267 265 264 261 258 256 256 256 256 256 256 257 257 257 257 259 259 260 261 261 260 261
286 285 284 284 283 283 284 285 285 285 285 283 282 279 278 277 276 277 275 272 270 269 268 267 266 265 264 262 259 257 255 255 256 256 256 257 256 256 257 258 259 260 262 261
286 285 285 284 284 285 286 287 289 290 290 286 286 285 281 281 280 280 277 275 272 269 269 268 267 266 265 263 262 260 258 257 256 256 255 256 256 256 256 257 258 259 260 261
284 283 283 284 284 286 288 292 293 292 289 288 287 286 285 285 278 277 275 273 273 270 270 270 269 268 266 264 261 259 259 258 257 257 256 255 255 256 256 256 257 257 259 259
282 283 285 286 290 291 292 292 293 294 293 294 292 287 285 283 277 274 275 277 276 274 273 271 270 270 268 266 263 260 258 258 257 256 256 256 256 256 255 255 256 257 258 259
282 285 287 289 292 294 295 297 301 302 305 296 293 292 289 288 283 281 283 281 280 278 277 276 276 274 273 269 265 261 259 258 257 257 257 256 256 256 256 256 256 256 257 258
284 287 289 293 296 301 304 309 313 313 306 300 305 302 297 292 291 289 286 284 282 282 281 281 280 278 276 274 271 268 264 260 258 257 256 257 257 257 256 256 255 255 255 256
286 289 294 298 302 307 310 315 319 318 315 317 319 310 305 296 293 291 293 290 289 290 287 284 283 282 283 280 277 273 270 268 264 261 259 257 256 256 256 256 257 257 255 255
286 292 297 300 305 311 314 319 321 322 317 319 321 314 311 300 299 299 298 296 296 299 295 292 290 290 289 289 286 281 276 271 267 264 262 261 258 257 256 257 257 257 257 255
286 292 297 303 309 313 318 320 321 322 317 319 323 317 312 302 301 300 300 297 302 304 304 300 296 291 289 289 287 284 280 277 274 269 263 259 258 257 256 256 257 257 257 257
287 294 301 303 309 313 319 320 321 324 319 316 321 324 310 303 307 305 299 297 306 306 310 314 310 302 296 297 293 286 283 281 281 276 271 265 262 260 258 257 258 258 257 256
288 295 299 305 311 312 316 319 325 323 317 313 316 318 321 305 300 305 302 302 300 303 310 317 320 317 310 306 296 291 282 280 279 277 274 272 268 267 265 262 262 263 261 259
291 294 301 305 308 312 314 318 319 323 320 313 313 318 323 303 296 303 304 306 306 308 311 310 311 311 309 307 297 291 285 281 278 273 275 276 276 272 268 267 265 261 259 261
291 297 302 303 304 308 311 313 315 319 317 310 312 317 324 310 296 299 300 302 301 303 307 312 311 311 313 307 306 300 291 284 281 280 282 279 272 267 263 258 257 257 258 257
289 291 297 299 300 304 310 308 311 315 314 308 310 316 322 313 296 299 300 300 304 305 309 309 311 315 319 315 309 302 296 288 287 288 279 265 265 259 252 256 262 265 265 262
285 287 293 296 297 300 302 303 307 312 312 306 310 313 320 316 296 296 304 305 306 310 312 310 315 318 319 317 310 302 301 301 294 280 272 268 258 259 263 269 277 276 272 271
278 280 286 294 293 295 294 300 301 307 307 303 307 314 320 318 302 296 304 309 313 316 317 310 314 314 313 310 307 309 306 305 300 285 275 266 269 275 279 283 281 276 277 276
273 278 285 291 288 289 291 294 297 301 303 300 305 315 319 318 303 297 300 311 319 321 313 310 315 319 319 321 322 320 308 302 301 293 286 281 279 277 281 278 280 278 275 270
275 280 284 288 285 287 289 293 292 297 298 295 301 312 318 318 302 298 297 307 312 316 306 311 322 326 331 334 329 327 318 305 300 299 295 287 283 281 279 273 272 261 258 246
272 276 278 277 279 282 285 291 287 292 293 287 300 313 317 317 299 292 293 303 311 320 313 329 335 349 344 330 333 329 324 316 310 303 292 286 283 277 279 266 242 220 173 141
274 274 275 275 278 280 281 284 284 288 286 289 298 309 311 319 296 290 287 296 310 321 321 340 19 346 329 341 333 340 327 338 332 323 318 295 288 276 245 212 158 138 119 111
270 273 273 274 277 279 280 276 280 281 280 285 295 304 305 312 300 280 276 288 306 320 330 32 7 351 2 356 3 46 39 32 3 342 349 342 317 190 163 142 137 129 123 122
273 273 274 278 281 279 275 272 273 276 277 280 287 296 301 302 305 277 269 282 302 309 3 70 8 78 58 38 100 66 46 44 33 20 26 53 94 122 127 135 137 130 125 124
274 275 275 276 277 277 275 266 270 270 270 278 281 288 294 294 297 281 275 279 306 300 147 144 72 101 105 110 96 87 80 58 41 50 65 90 106 120 127 130 128 126 126 124
276 276 276 278 275 274 268 265 262 262 266 275 276 282 288 288 287 277 275 282 291 250 160 135 135 116 129 123 111 101 83 83 72 59 88 95 102 109 118 121 125 126 127 127
276 278 279 278 274 268 264 257 255 257 262 269 272 279 282 279 275 270 269 274 258 190 162 152 142 112 105 110 111 77 95 82 91 96 99 105 109 116 121 128 129 131 128 130
Height
10801 10799 10796 10794 10791 10788 10785 10783 10780 10779 10776 10771 10768 10763 10759 10766 10753 10755 10750 10750 10746 10746 10744 10742 10741 10741 10740 10741 10743 10743 10743 10744 10744 10745 10747 10751 10752 10753 10755 10757 10757 10760 10764 10766
10792 10790 10788 10785 10782 10779 10776 10773 10770 10767 10765 10759 10756 10749 10748 10744 10742 10737 10734 10730 10727 10724 10723 10720 10719 10719 10718 10717 10719 10720 10722 10722 10723 10724 10726 10728 10731 10734 10736 10737 10739 10741 10742 10746
10783 10781 10777 10775 10772 10770 10767 10764 10761 10757 10752 10746 10744 10730 10730 10732 10722 10719 10713 10708 10705 10704 10701 10699 10698 10696 10694 10692 10694 10695 10696 10698 10699 10701 10703 10706 10709 10711 10714 10717 10720 10721 10724 10725
10774 10771 10768 10766 10763 10761 10759 10755 10750 10745 10739 10729 10730 10717 10707 10717 10703 10694 10693 10687 10686 10681 10678 10675 10674 10672 10669 10667 10668 10670 10669 10670 10673 10674 10679 10683 10685 10688 10691 10694 10698 10702 10703 10707
10765 10762 10760 10758 10755 10752 10749 10745 10740 10732 10723 10716 10708 10697 10686 10688 10677 10677 10669 10665 10663 10658 10655 10651 10649 10647 10644 10642 10641 10643 10643 10643 10646 10648 10651 10655 10660 10662 10665 10669 10674 10678 10680 10684
10755 10753 10751 10749 10746 10742 10738 10732 10726 10715 10707 10698 10692 10680 10670 10666 10659 10655 10651 10647 10643 10638 10634 10630 10627 10622 10619 10618 10618 10617 10617 10616 10619 10622 10624 10628 10632 10635 10642 10644 10651 10654 10657 10660
10746 10744 10742 10739 10735 10730 10724 10718 10707 10696 10690 10682 10678 10666 10661 10649 10645 10640 10638 10633 10628 10623 10619 10613 10609 10605 10602 10599 10596 10594 10593 10592 10595 10597 10599 10602 10607 10610 10616 10620 10626 10631 10634 10637
10736 10735 10733 10730 10724 10719 10711 10704 10695 10685 10676 10664 10659 10656 10648 10642 10636 10631 10627 10621 10616 10612 10607 10602 10597 10593 10588 10583 10580 10577 10574 10573 10574 10575 10577 10580 10585 10588 10591 10595 10602 10607 10611 10615
10725 10724 10723 10719 10712 10707 10701 10692 10684 10676 10668 10659 10649 10643 10643 10633 10627 10623 10618 10612 10608 10602 10596 10591 10585 10581 10575 10570 10565 10563 10560 10559 10558 10558 10558 10559 10563 10567 10571 10573 10577 10581 10586 10590
10716 10714 10711 10708 10702 10696 10688 10681 10675 10670 10661 10653 10641 10635 10629 10625 10620 10615 10609 10604 10600 10595 10588 10581 10575 10570 10565 10560 10554 10549 10548 10546 10546 10545 10545 10543 10545 10548 10551 10553 10556 10559 10562 10568
10707 10703 10702 10697 10691 10687 10679 10673 10665 10657 10651 10646 10639 10628 10623 10617 10612 10607 10601 10596 10593 10587 10580 10574 10567 10561 10555 10548 10543 10539 10536 10534 10534 10534 10533 10533 10533 10535 10537 10540 10540 10544 10547 10548
10696 10693 10690 10686 10682 10676 10670 10663 10656 10650 10643 10639 10631 10622 10613 10608 10603 10600 10594 10590 10585 10578 10572 10565 10558 10552 10545 10539 10533 10529 10526 10525 10523 10522 10522 10522 10523 10523 10524 10526 10527 10529 10533 10534
10686 10684 10679 10675 10670 10668 10661 10657 10648 10640 10633 10627 10623 10614 10607 10600 10595 10591 10588 10582 10577 10571 10565 10560 10553 10546 10539 10531 10526 10522 10519 10517 10516 10514 10512 10511 10511 10513 10512 10515 10516 10518 10519 10520
10674 10672 10669 10664 10659 10658 10655 10649 10640 10633 10626 10621 10613 10608 10599 10590 10588 10585 10581 10576 10571 10565 10559 10554 10547 10539 10532 10524 10519 10515 10511 10510 10506 10504 10503 10501 10500 10502 10504 10506 10507 10508 10509 10508
10663 10660 10660 10656 10651 10646 10642 10637 10633 10626 10619 10614 10607 10599 10593 10584 10581 10579 10574 10569 10564 10557 10552 10547 10540 10533 10525 10518 10513 10509 10505 10502 10499 10496 10494 10493 10493 10495 10497 10498 10499 10498 10496 10497
10652 10649 10647 10645 10642 10639 10634 10627 10624 10617 10611 10605 10600 10593 10585 10578 10574 10573 10568 10562 10557 10551 10547 10540 10533 10526 10520 10514 10508 10503 10499 10495 10492 10489 10489 10489 10488 10489 10489 10489 10488 10484 10483 10482
10639 10637 10636 10634 10630 10629 10625 10619 10613 10609 10603 10598 10592 10585 10577 10570 10567 10567 10562 10556 10551 10546 10541 10534 10529 10523 10517 10510 10503 10499 10495 10492 10489 10487 10485 10484 10483 10481 10480 10478 10476 10473 10471 10470
10625 10623 10621 10621 10616 10617 10613 10609 10604 10600 10593 10589 10583 10578 10572 10564 10561 10561 10556 10551 10546 10541 10536 10529 10525 10518 10511 10506 10501 10497 10494 10491 10487 10484 10481 10478 10475 10472 10470 10468 10465 10464 10464 10463
10610 10609 10607 10607 10603 10602 10600 10600 10592 10591 10584 10581 10576 10573 10567 10559 10554 10553 10551 10546 10542 10539 10532 10527 10522 10516 10511 10506 10501 10496 10492 10487 10482 10478 10473 10469 10466 10462 10460 10459 10459 10460 10460 10459
10595 10594 10595 10592 10592 10590 10585 10590 10577 10580 10575 10572 10567 10564 10559 10553 10548 10546 10544 10540 10537 10534 10528 10524 10518 10514 10510 10505 10501 10495 10490 10483 10476 10470 10463 10458 10455 10454 10454 10454 10456 10458 10459 10460
10578 10578 10578 10577 10577 10575 10576 10575 10566 10567 10563 10562 10560 10557 10551 10547 10542 10540 10538 10535 10532 10529 10525 10521 10518 10515 10510 10506 10501 10495 10487 10481 10473 10464 10456 10451 10449 10449 10449 10452 10457 10459 10461 10463
10564 10561 10561 10561 10561 10561 10563 10561 10558 10554 10553 10552 10550 10550 10545 10541 10537 10534 10532 10530 10528 10525 10522 10521 10518 10514 10511 10507 10502 10498 10492 10483 10473 10463 10455 10450 10446 10447 10449 10454 10459 10462 10465 10471
10546 10548 10546 10544 10544 10544 10546 10548 10544 10542 10542 10542 10541 10540 10539 10534 10531 10528 10526 10525 10524 10522 10521 10519 10517 10514 10511 10510 10507 10503 10497 10488 10478 10467 10457 10452 10450 10451 10454 10460 10465 10469 10476 10485
10531 10526 10529 10527 10528 10527 10529 10531 10532 10530 10530 10530 10530 10530 10531 10529 10526 10523 10523 10522 10522 10520 10520 10518 10517 10516 10513 10512 10510 10507 10502 10497 10488 10476 10467 10462 10461 10461 10465 10470 10476 10482 10489 10497
10504 10509 10508 10510 10510 10511 10514 10516 10515 10517 10517 10519 10520 10519 10522 10521 10520 10518 10519 10519 10519 10518 10518 10518 10517 10517 10516 10516 10515 10512 10508 10504 10499 10492 10483 10479 10478 10478 10482 10486 10492 10499 10505 10511
10485 10487 10490 10490 10491 10494 10492 10499 10498 10503 10506 10509 10508 10509 10512 10514 10514 10512 10513 10515 10516 10516 10517 10518 10518 10518 10518 10519 10519 10519 10516 10514 10508 10505 10499 10495 10494 10494 10499 10503 10507 10513 10518 10527